Location: *
(60.1759°S, 155.0663°W)
Time: 12:09:41
(UTC+00:00)

Meteor 2-19 Rocket - Pass Details

Date: 17 September 2019
Orbit: 935 x 959 km, 82.5° (Epoch: 18 October)

Event Time Altitude Azimuth Distance (km) Brightness Sun altitude
Rises 15:02:41 0° 195° (SSW) 3,669 7.5 -10.8°
Reaches altitude 10° 15:05:12 10° 196° (SSW) 2,722 6.8 -10.5°
Maximum altitude 15:11:26 76° 279° (W) 1,004 4.5 -9.7°
Drops below altitude 10° 15:17:38 10° 4° (N) 2,708 6.8 -9.0°
Sets 15:20:08 0° 5° (N) 3,648 7.4 -8.7°
